[[{"header":{"parameterUnit":"m.s-1","parameterCategory":1,"la1":30.2992,"la2":30.254,"lo1":-89.0895,"lo2":-89.0443,"dy":0.0025,"dx":0.0025,"nx":19,"ny":19,"refTime":"2026-03-06T03:00:00:Z","depth":0,"parameterNumber":2,"parameterNumberName":"U-component_of_WINDS"},"data":[0,0,0,-5.3315,-5.3317,-5.3418,-5.3419,-5.3564,-5.3565,0,0,0,0,0,0,0,0,0,0,0,-5.3295,-5.3296,-5.3314,-5.3317,-5.3418,-5.3419,-5.3563,-5.3565,0,0,0,0,0,0,0,0,0,0,0,-5.3294,-5.3296,-5.3298,-5.3318,-5.3418,-5.3419,-5.3563,-5.3481,0,0,0,0,0,0,0,0,0,0,-5.338,-5.3372,-5.3296,-5.3298,-5.3318,-5.3418,-5.3419,-5.3476,-5.3486,-5.3525,0,-5.3564,0,-5.3567,-5.3576,-5.3576,0,0,0,-5.3309,-5.3365,-5.3383,-5.3298,-5.3319,-5.3418,-5.337,-5.3481,-5.3492,-5.3537,-5.3566,-5.357,-5.3569,-5.3577,-5.3578,-5.3835,-5.3837,0,0,-5.3303,-5.3318,-5.3375,-5.339,-5.3377,-5.3367,-5.3373,-5.3488,-5.3519,-5.3566,-5.3574,-5.3572,-5.3578,-5.3579,-5.3834,-5.3836,0,0,0,-5.3293,-5.3315,-5.333,-5.3385,-5.3402,-5.337,-5.3378,-5.3513,-5.3517,-5.3575,-5.3574,-5.3579,-5.3581,-5.3832,-5.3835,-5.3928,0,0,0,-5.3289,-5.3309,-5.3328,-5.3338,-5.34,-5.3459,-5.3401,-5.3509,-5.3522,-5.3573,-5.3579,-5.3583,-5.383,-5.3833,-5.3922,-5.3968,0,0,0,-5.3285,-5.3308,-5.3327,-5.3339,-5.3383,-5.3457,-5.3467,-5.3512,-5.3521,-5.3577,-5.3583,-5.3829,-5.3833,-5.3916,-5.3959,-5.4039,0,0,0,-5.3284,-5.3408,-5.3329,-5.3466,-5.3383,-5.3516,-5.3466,-5.3564,-5.3623,-5.358,-5.3831,-5.3834,-5.3914,-5.3953,-5.4033,-5.4108,-5.4141,0,0,-5.3448,-5.3428,-5.3508,-5.344,-5.3591,-5.3499,-5.3663,-5.3701,-5.3692,-5.3788,-5.3794,-5.3924,-5.3958,-5.4038,-5.4328,-5.4355,0,0,0,-5.3565,-5.3622,-5.3659,-5.3717,-5.3751,-5.3783,-5.3796,-5.381,-5.3891,-5.3745,-5.3976,-5.3996,-5.4042,-5.4076,-5.4099,-5.4137,-5.3852,-5.3852,-5.3851,-5.3815,-5.38,-5.393,-5.3927,-5.3984,-5.3997,-5.4041,-5.4063,-5.4028,-5.4083,-5.411,-5.4288,-5.433,-5.4347,-5.4386,-5.4151,-5.4151,-5.4152,-5.4152,-5.4052,-5.4129,-5.4084,-5.4194,-5.4177,-5.4268,-5.4287,-5.426,-5.4342,-5.4266,-5.4306,-5.4222,-5.4377,-5.441,-5.4159,-5.4158,-5.4157,-5.4156,-5.4156,-5.4211,-5.4245,-5.4264,-5.4347,-5.4414,-5.4407,-5.4488,-5.447,-5.4452,-5.4492,-5.4517,-5.4516,-5.4509,-5.4506,-5.4507,-5.4508,-5.4508,-5.4509,-5.4509,-5.4368,-5.4386,-5.4457,-5.4507,-5.4543,-5.4587,-5.4605,-5.4639,-5.4671,-5.4651,-5.4651,-5.461,-5.4397,-5.4341,-5.4518,-5.4517,-5.4515,-5.4515,-5.4514,-5.4607,-5.4551,-5.4661,-5.4698,-5.4755,-5.4822,-5.4799,-5.4871,-5.4897,-5.4938,-5.4891,-5.4737,-5.4713,-5.4695,-5.4649,-5.4895,-5.4895,-5.4895,-5.4895,-5.4738,-5.4727,-5.4837,-5.4896,-5.4952,-5.4944,-5.5069,-5.5085,-5.5092,-5.5107,-5.507,-5.5008,-5.4991,-5.4978,-5.4953,-5.491,-5.5217,-5.5217,-5.5217,-5.4883,-5.4877,-5.4986,-5.4995,-5.504,-5.5078,-5.5195,-5.5264,-5.5261,-5.523,-5.5117,-5.5104,-5.5005,-5.4974,-5.4935,-5.4898,-5.4818,0,0]},{"header":{"parameterUnit":"m.s-1","parameterCategory":1,"la1":30.2992,"la2":30.254,"lo1":-89.0895,"lo2":-89.0443,"dy":0.0025,"dx":0.0025,"nx":19,"ny":19,"refTime":"2026-03-06T03:00:00:Z","depth":0,"parameterNumber":3,"parameterNumberName":"V-component_of_WINDS"},"data":[0,0,0,2.4869,2.487,2.4921,2.4921,2.4983,2.4984,0,0,0,0,0,0,0,0,0,0,0,2.4852,2.4852,2.4869,2.487,2.4921,2.4921,2.4983,2.4984,0,0,0,0,0,0,0,0,0,0,0,2.4852,2.4852,2.4852,2.487,2.4921,2.4921,2.4983,2.4946,0,0,0,0,0,0,0,0,0,0,2.4897,2.4878,2.4852,2.4852,2.4871,2.4921,2.4921,2.4944,2.4948,2.4959,0,2.4968,0,2.4977,2.4988,2.4988,0,0,0,2.4871,2.4875,2.4891,2.4853,2.4871,2.4921,2.4899,2.4946,2.4951,2.4964,2.4968,2.4971,2.4978,2.4988,2.4988,2.5049,2.5049,0,0,2.4869,2.4859,2.4888,2.4894,2.4886,2.4897,2.49,2.4949,2.4953,2.4969,2.4972,2.4979,2.4988,2.4989,2.5049,2.5049,0,0,0,2.486,2.4857,2.4872,2.4891,2.4901,2.4898,2.4902,2.4951,2.4957,2.4973,2.498,2.4989,2.4989,2.5048,2.5049,2.5052,0,0,0,2.4858,2.4852,2.4871,2.4866,2.49,2.4926,2.4903,2.4953,2.4959,2.4979,2.4989,2.499,2.5048,2.5049,2.5052,2.5055,0,0,0,2.4849,2.4851,2.4858,2.4865,2.4887,2.4926,2.4934,2.4955,2.4963,2.4988,2.499,2.5048,2.5048,2.5051,2.5054,2.507,0,0,0,2.4836,2.4857,2.4858,2.4884,2.4886,2.4928,2.4934,2.4965,2.4987,2.4989,2.5048,2.5049,2.5051,2.5053,2.5069,2.5081,2.5085,0,0,2.4858,2.486,2.4876,2.4878,2.4918,2.4921,2.4961,2.4988,2.4998,2.5031,2.5033,2.5052,2.5054,2.5069,2.5112,2.5115,0,0,0,2.488,2.4892,2.4905,2.4926,2.495,2.4971,2.4994,2.5005,2.5034,2.5014,2.5062,2.5063,2.5073,2.5079,2.5082,2.5091,2.5051,2.5051,2.5051,2.4895,2.491,2.4939,2.4961,2.4982,2.5008,2.5027,2.5046,2.5052,2.5064,2.5073,2.5097,2.5104,2.5107,2.5116,2.5081,2.5081,2.5081,2.5081,2.4928,2.4948,2.496,2.4993,2.5009,2.5037,2.5064,2.5068,2.5097,2.509,2.5099,2.5091,2.511,2.5119,2.5081,2.5081,2.5081,2.5081,2.5081,2.494,2.4952,2.4967,2.5003,2.5029,2.5051,2.5079,2.5092,2.5104,2.5113,2.5126,2.5126,2.5128,2.5119,2.5119,2.5119,2.5119,2.5119,2.5119,2.4945,2.4963,2.4985,2.5016,2.5034,2.5059,2.5089,2.5106,2.5129,2.5136,2.5137,2.5143,2.5109,2.5101,2.512,2.512,2.512,2.512,2.512,2.4973,2.497,2.5005,2.5023,2.5062,2.5089,2.5107,2.5143,2.516,2.5174,2.518,2.5153,2.5155,2.5152,2.5146,2.5176,2.5176,2.5176,2.5176,2.4982,2.4986,2.5027,2.5057,2.5087,2.5108,2.5149,2.5174,2.5198,2.521,2.5208,2.52,2.5197,2.5201,2.5198,2.5192,2.5233,2.5233,2.5233,2.5001,2.5009,2.5041,2.5068,2.5101,2.5129,2.5169,2.5202,2.5229,2.5236,2.522,2.5218,2.5205,2.52,2.5204,2.5199,2.5188,0,0]}]]